2021-050C (48842 NORAD) Tracking and Keplerian Element Data

This shows tracking and keplerian element data for the satellite.

Feedback or suggestion? Click here.




ElementValue
Catalog48842
Name2021-050C
Epoch Orbit745
Epoch Day211.17625404
Epoch Year2021
RAAN280.956
Inclination97.5119
Eccentricity0.0013975
Argument of Perigee103.6721
Mean Anonmoly340.4897
Mean Motion15.23786022
Decay Rate-7.3E-07
L11 48842U 21050C 21211.17625404 -.00000073 00000-0 00000+0 0 9990
L22 48842 97.5119 280.9560 0013975 103.6721 340.4897 15.23786022 7452

Live tracking and technical data element details for 2021-050C (NORAD 48842). 2021-050C can be tracked NOW for your location showing map with azimuth and elevation plus other details from your city location.

Track the satellite on the map from your city or location and see movement details for azimuth, elevation, latitude, longitude, range, height, and movement on the map or in text.







IsCatalogInMostPopularTable: catalog: 48842, numindb: 13
Update: records affected: 1



GetName: 48842 2021-050C

Hit Count: updated at: Sat, 31 Jul 2021 14:30:05 GMT